User: anonymous   Login
Location: Unspecified
(0.0000°N, 0.0000°E)
Time: 10:18:12
(UTC+00:00)
Language:

Orbcomm G2 (FM04) - Orbit

View from above orbital plane
View from above orbital plane
View from above satellite
View from above satellite

Ground track
Ground track

The orbit data is extracted from the following two-line orbital elements,

1 25159U 98007C   17294.74007306 +.00000196 +00000-0 +12678-3 0  9999
2 25159 107.9857 185.2658 0043603 055.4974 305.0270 14.29457401024444
Epoch (UTC): 21 October 2017 17:45:42
Eccentricity: 0.0043603
inclination: 107.9857°
perigee height: 762 km
apogee height: 825 km
right ascension of ascending node: 185.2658°
argument of perigee: 55.4974°
revolutions per day: 14.29457401
mean anomaly at epoch: 305.0270°
orbit number at epoch: 2444

The dashed part of the orbit path shows where the satellite is in the earth's shadow,  

DLR